Defiance, OH

5:05 AM EDT on July 28, 2017 (GMT -0400)
Defiance Memorial

Weather History for KDFI - December, 2012

Change the Weather History Date:

Saturday, December 1, 2012

  Actual Average Record
Temperature  
Mean Temperature 48 °F -  
Max Temperature 60 °F 42 °F 63 °F (1962)
Min Temperature 35 °F 26 °F -1 °F (1958)
Degree Days  
Heating Degree Days 18    
Moisture  
Dew Point 41 °F    
Average Humidity 83    
Maximum Humidity 100    
Minimum Humidity 60    
Precipitation  
Precipitation 0.00 in - - ()
Sea Level Pressure  
Sea Level Pressure 30.18 in    
Wind  
Wind Speed 6 mph (ESE)    
Max Wind Speed 16 mph    
Max Gust Speed 26 mph    
Visibility 5 miles    
Events Fog    
Averages and records for this station are not official NWS values.
T = Trace of Precipitation, MM = Missing Value Source: NWS Daily Summary

Daily Weather History Graph

Daily Weather History Graph

Search for Another Location

Airport or City:

Trip Planner

Search our weather history database for the weather conditions in past years. The results will help you decide how hot, cold, wet, or windy it might be!

Date:

Astronomy

Dec. 01, 2012 Rise Set
Actual Time 7:44 AM EST 5:09 PM EST
Civil Twilight 7:13 AM EST 5:39 PM EST
Nautical Twilight 6:39 AM EST 6:14 PM EST
Astronomical Twilight 6:06 AM EST 6:47 PM EST
Moon 7:58 PM EST (12/1) 9:56 AM EST (12/1)
Length of Visible Light 10h 25m
Length of Day
9h 24m
Waning Gibbous, 92% of the Moon is Illuminated
Dec 1
Waning Gibbous
Dec 6
Last Quarter
Dec 13
New
Dec 20
First Quarter
Dec 28
Full

Hourly Weather History & Observations

Time (EST) Temp. Windchill Dew Point Humidity Pressure Visibility Wind Dir Wind Speed Gust Speed Precip Events Conditions
12:25 AM 35.6 °F 32.8 °F 33.8 °F 93% 30.20 in 5.0 mi ENE 3.5 mph - N/A   Scattered Clouds
12:34 AM 37.4 °F 33.8 °F 33.8 °F 87% 30.19 in 4.0 mi ENE 4.6 mph - N/A   Mostly Cloudy
12:43 AM 37.4 °F 33.8 °F 35.6 °F 93% 30.19 in 3.0 mi ENE 4.6 mph - N/A   Overcast
12:53 AM 37.9 °F 35.5 °F 36.0 °F 93% 30.21 in 2.5 mi East 3.5 mph - N/A   Overcast
1:10 AM 37.4 °F 32.8 °F 37.4 °F 100% 30.21 in 2.0 mi NNE 5.8 mph - N/A   Overcast
1:17 AM 39.2 °F 35.9 °F 37.4 °F 93% 30.20 in 2.5 mi NE 4.6 mph - N/A   Overcast
1:53 AM 39.9 °F 34.5 °F 37.9 °F 93% 30.22 in 2.5 mi ENE 8.1 mph - N/A   Overcast
2:05 AM 39.2 °F 34.2 °F 37.4 °F 93% 30.20 in 3.0 mi ENE 6.9 mph - N/A   Overcast
2:37 AM 39.2 °F 34.2 °F 37.4 °F 93% 30.21 in 2.5 mi ENE 6.9 mph - N/A   Overcast
2:51 AM 39.2 °F 35.0 °F 37.4 °F 93% 30.21 in 2.0 mi East 5.8 mph - N/A   Overcast
2:53 AM 39.9 °F 35.8 °F 37.9 °F 93% 30.23 in 2.5 mi ENE 5.8 mph - N/A   Overcast
3:26 AM 39.2 °F 34.2 °F 37.4 °F 93% 30.22 in 2.0 mi ENE 6.9 mph - N/A   Overcast
3:43 AM 39.2 °F 35.0 °F 37.4 °F 93% 30.22 in 1.8 mi ENE 5.8 mph - N/A   Overcast
3:51 AM 39.2 °F 35.9 °F 37.4 °F 93% 30.21 in 2.0 mi ENE 4.6 mph - N/A   Overcast
3:53 AM 39.0 °F 34.8 °F 37.9 °F 96% 30.23 in 2.0 mi ENE 5.8 mph - N/A   Overcast
4:07 AM 39.2 °F 34.2 °F 37.4 °F 93% 30.22 in 1.8 mi ENE 6.9 mph - N/A   Overcast
4:48 AM 39.2 °F 35.0 °F 37.4 °F 93% 30.22 in 0.8 mi ENE 5.8 mph - N/A   Mist
4:53 AM 39.0 °F 34.8 °F 37.9 °F 96% 30.23 in 0.5 mi East 5.8 mph - N/A Fog Fog
5:53 AM 37.9 °F 32.7 °F 37.0 °F 97% 30.23 in 0.2 mi East 6.9 mph - N/A Fog Fog
7:53 AM 37.9 °F 34.4 °F 37.0 °F 97% 30.25 in 0.2 mi East 4.6 mph - N/A Fog Fog
8:53 AM 37.9 °F 32.1 °F 37.0 °F 97% 30.25 in 0.2 mi East 8.1 mph - N/A Fog Fog
9:53 AM 39.0 °F 35.7 °F 39.0 °F 100% 30.25 in 0.2 mi East 4.6 mph - N/A Fog Fog
10:40 AM 39.2 °F - 39.2 °F 100% 30.22 in 1.0 mi Calm Calm - N/A   Overcast
10:53 AM 41.0 °F - 39.9 °F 96% 30.24 in 1.8 mi Calm Calm - N/A   Overcast
10:59 AM 42.8 °F - 39.2 °F 87% 30.22 in 2.5 mi Calm Calm - N/A   Overcast
11:04 AM 42.8 °F - 41.0 °F 93% 30.21 in 3.0 mi Calm Calm - N/A   Overcast
11:38 AM 48.2 °F - 41.0 °F 76% 30.20 in 6.0 mi South 3.5 mph - N/A   Haze
11:53 AM 48.9 °F - 41.0 °F 74% 30.20 in 7.0 mi South 5.8 mph - N/A   Partly Cloudy
12:53 PM 54.0 °F - 43.0 °F 66% 30.17 in 8.0 mi South 5.8 mph - N/A   Clear
1:53 PM 59.0 °F - 45.0 °F 60% 30.13 in 7.0 mi South 8.1 mph - N/A   Mostly Cloudy
2:53 PM 60.1 °F - 46.9 °F 62% 30.12 in 9.0 mi South 10.4 mph - N/A   Overcast
3:53 PM 60.1 °F - 48.0 °F 64% 30.11 in 9.0 mi South 10.4 mph - N/A   Overcast
4:11 PM 60.8 °F - 48.2 °F 63% 30.10 in 9.0 mi South 9.2 mph - N/A   Overcast
4:53 PM 60.1 °F - 48.0 °F 64% 30.11 in 9.0 mi South 9.2 mph - N/A   Overcast
5:13 PM 57.2 °F - 48.2 °F 72% 30.10 in 10.0 mi South 6.9 mph - N/A   Overcast
5:20 PM 57.2 °F - 48.2 °F 72% 30.10 in 10.0 mi South 5.8 mph - N/A   Overcast
5:53 PM 57.9 °F - 46.9 °F 67% 30.10 in 10.0 mi South 8.1 mph - N/A   Overcast
6:53 PM 57.9 °F - 46.0 °F 65% 30.09 in 10.0 mi South 12.7 mph 19.6 mph N/A   Partly Cloudy
7:53 PM 57.0 °F - 44.1 °F 62% 30.08 in 10.0 mi South 16.1 mph 23.0 mph N/A   Clear
8:53 PM 55.9 °F - 44.1 °F 64% 30.08 in 10.0 mi South 15.0 mph 24.2 mph N/A   Clear
9:53 PM 57.0 °F - 44.1 °F 62% 30.07 in 10.0 mi South 12.7 mph 26.5 mph N/A   Overcast
10:53 PM 57.0 °F - 45.0 °F 64% 30.07 in 10.0 mi South 15.0 mph 23.0 mph N/A   Overcast
11:53 PM 55.9 °F - 45.0 °F 67% 30.05 in 10.0 mi SSW 15.0 mph 24.2 mph 0.00 in   Overcast